BAW1760 EGNT-EGAC

Flight info

Callsign BAW1760
Flight time 0h 45m
Altitude 23000
Route GIRLI P18 UVAVU/N0414F250 P18 GASKO P16 RIBEL/N0401F230 P16 CROFT/N0407F240 Y70 KOLID L70 GUNTU Z196 DIGMA M146 ERDUV Z198 MASOP M148 MAGEE
Aircraft A20N/M-SDE2E3FGHIRWXY/LB1

Departure

Time 2026-04-20 20:21
Airport Newcastle International Airport (EGNT)

Arrival

Time 2026-04-20 21:06
Airport George Best Belfast City Airport (EGAC)
Time Latitude Longitude Altitude Speed Heading
2026-04-20 20:08 55.03669 -1.70845 267 ft 0 kts
2026-04-20 20:12 55.03659 -1.70846 267 ft 2 kts
2026-04-20 20:12 55.03646 -1.70847 267 ft 2 kts 360°
2026-04-20 20:13 55.03621 -1.70846 267 ft 2 kts 355°
2026-04-20 20:13 55.03608 -1.70843 267 ft 2 kts 351°
2026-04-20 20:13 55.03595 -1.70840 267 ft 2 kts 354°
2026-04-20 20:13 55.03583 -1.70838 267 ft 2 kts
2026-04-20 20:14 55.03572 -1.70839 267 ft 0 kts
2026-04-20 20:18 55.03578 -1.70838 267 ft 3 kts
2026-04-20 20:18 55.03596 -1.70776 267 ft 10 kts 84°
2026-04-20 20:19 55.03561 -1.70650 267 ft 14 kts 175°
2026-04-20 20:19 55.03458 -1.70646 267 ft 0 kts 181°
2026-04-20 20:20 55.03457 -1.70646 267 ft 1 kts 181°
2026-04-20 20:20 55.03411 -1.70647 267 ft 12 kts 175°
2026-04-20 20:20 55.03386 -1.70516 267 ft 17 kts 70°
2026-04-20 20:20 55.03509 -1.70054 263 ft 86 kts 66°
2026-04-20 20:21 55.03863 -1.68705 461 ft 139 kts 65°
2026-04-20 20:21 55.04261 -1.67213 1455 ft 137 kts 66°
2026-04-20 20:21 55.04670 -1.65655 2331 ft 149 kts 66°
2026-04-20 20:21 55.05119 -1.63931 3096 ft 164 kts 66°
2026-04-20 20:22 55.05627 -1.61992 3700 ft 188 kts 66°
2026-04-20 20:22 55.06205 -1.59806 4420 ft 206 kts 67°
2026-04-20 20:22 55.06458 -1.57343 5408 ft 211 kts 96°
2026-04-20 20:22 55.05921 -1.54961 6420 ft 217 kts 127°
2026-04-20 20:23 55.04693 -1.53389 7347 ft 226 kts 158°
2026-04-20 20:23 55.03113 -1.52998 7790 ft 239 kts 177°
2026-04-20 20:23 55.01317 -1.53034 7978 ft 273 kts 180°
2026-04-20 20:23 54.99394 -1.53137 7996 ft 277 kts 180°
2026-04-20 20:24 54.97490 -1.53645 7995 ft 279 kts 195°
2026-04-20 20:24 54.96296 -1.54482 7997 ft 282 kts 206°
2026-04-20 20:24 54.94608 -1.56241 8000 ft 282 kts 210°
2026-04-20 20:24 54.92953 -1.57982 7996 ft 282 kts 210°
2026-04-20 20:25 54.91267 -1.59730 7994 ft 282 kts 209°
2026-04-20 20:25 54.89582 -1.61463 7997 ft 282 kts 209°
2026-04-20 20:25 54.87890 -1.63198 7996 ft 282 kts 209°
2026-04-20 20:25 54.86197 -1.64933 7995 ft 282 kts 209°
2026-04-20 20:26 54.84505 -1.66665 7996 ft 282 kts 209°
2026-04-20 20:26 54.83384 -1.67813 7995 ft 282 kts 209°
2026-04-20 20:26 54.81752 -1.69482 7995 ft 282 kts 209°
2026-04-20 20:26 54.80086 -1.71185 7999 ft 282 kts 209°
2026-04-20 20:27 54.78387 -1.72921 7997 ft 282 kts 209°
2026-04-20 20:27 54.76694 -1.74650 7997 ft 282 kts 209°
2026-04-20 20:27 54.75002 -1.76375 7995 ft 282 kts 209°
2026-04-20 20:27 54.73306 -1.78103 7997 ft 283 kts 209°
2026-04-20 20:28 54.72175 -1.79230 7999 ft 283 kts 206°
2026-04-20 20:28 54.69697 -1.80785 8364 ft 285 kts 190°
2026-04-20 20:28 54.67741 -1.81374 9386 ft 284 kts 188°
2026-04-20 20:28 54.65789 -1.81981 10510 ft 287 kts 189°
2026-04-20 20:29 54.63789 -1.82618 11125 ft 307 kts 189°
2026-04-20 20:29 54.61608 -1.83313 11551 ft 330 kts 189°
2026-04-20 20:29 54.59292 -1.84051 12214 ft 342 kts 189°
2026-04-20 20:29 54.56940 -1.84798 13145 ft 347 kts 189°
2026-04-20 20:30 54.54545 -1.85556 14074 ft 351 kts 189°
2026-04-20 20:30 54.52129 -1.86319 14936 ft 355 kts 189°
2026-04-20 20:30 54.49690 -1.87087 15779 ft 358 kts 189°
2026-04-20 20:30 54.47219 -1.87863 16615 ft 362 kts 189°
2026-04-20 20:31 54.44724 -1.88646 17433 ft 366 kts 189°
2026-04-20 20:31 54.42205 -1.89435 18238 ft 370 kts 189°
2026-04-20 20:31 54.39642 -1.90236 18877 ft 379 kts 189°
2026-04-20 20:31 54.36989 -1.91063 19073 ft 397 kts 189°
2026-04-20 20:32 54.34213 -1.91927 19257 ft 414 kts 189°
2026-04-20 20:32 54.31318 -1.92828 19428 ft 430 kts 189°
2026-04-20 20:32 54.28315 -1.93762 19607 ft 444 kts 189°
2026-04-20 20:32 54.25313 -1.94906 20004 ft 452 kts 196°
2026-04-20 20:33 54.22401 -1.96976 20555 ft 456 kts 208°
2026-04-20 20:33 54.19746 -1.99981 21081 ft 460 kts 219°
2026-04-20 20:33 54.17379 -2.03691 21644 ft 462 kts 224°
2026-04-20 20:33 54.15830 -2.06199 21987 ft 464 kts 224°
2026-04-20 20:34 54.13479 -2.09996 22509 ft 467 kts 224°
2026-04-20 20:34 54.11105 -2.13813 23036 ft 470 kts 224°
2026-04-20 20:34 54.08711 -2.17646 23310 ft 472 kts 224°
2026-04-20 20:34 54.06317 -2.21468 23367 ft 472 kts 224°
2026-04-20 20:35 54.03870 -2.25188 23367 ft 472 kts 220°
2026-04-20 20:35 54.01187 -2.28414 23361 ft 474 kts 213°
2026-04-20 20:35 53.98277 -2.31059 23354 ft 475 kts 206°
2026-04-20 20:35 53.95192 -2.33143 23356 ft 476 kts 202°
2026-04-20 20:36 53.92136 -2.35087 23354 ft 475 kts 202°
2026-04-20 20:36 53.89043 -2.37061 23354 ft 476 kts 202°
2026-04-20 20:36 53.85943 -2.39042 23355 ft 475 kts 202°
2026-04-20 20:36 53.82848 -2.41024 23347 ft 475 kts 202°
2026-04-20 20:37 53.79752 -2.43006 23347 ft 475 kts 202°
2026-04-20 20:37 53.76662 -2.44982 23347 ft 475 kts 202°
2026-04-20 20:37 53.73568 -2.46956 23343 ft 475 kts 202°
2026-04-20 20:37 53.70474 -2.48928 23343 ft 475 kts 202°
2026-04-20 20:38 53.67409 -2.51038 23337 ft 473 kts 208°
2026-04-20 20:38 53.64671 -2.53957 23341 ft 470 kts 220°
2026-04-20 20:38 53.62326 -2.57767 23345 ft 467 kts 232°
2026-04-20 20:38 53.60506 -2.62267 23328 ft 464 kts 243°
2026-04-20 20:39 53.59199 -2.67238 23336 ft 463 kts 250°
2026-04-20 20:39 53.58253 -2.72400 23334 ft 461 kts 259°
2026-04-20 20:39 53.57772 -2.77733 23333 ft 461 kts 266°
2026-04-20 20:39 53.57731 -2.83135 23335 ft 463 kts 274°
2026-04-20 20:40 53.58017 -2.88536 23335 ft 462 kts 276°
2026-04-20 20:40 53.58303 -2.93940 23339 ft 464 kts 276°
2026-04-20 20:40 53.58572 -2.99340 23332 ft 463 kts 276°
2026-04-20 20:40 53.58829 -3.04673 23327 ft 463 kts 275°
2026-04-20 20:41 53.59080 -3.10067 23332 ft 463 kts 275°
2026-04-20 20:41 53.59350 -3.15470 23324 ft 463 kts 277°
2026-04-20 20:41 53.59896 -3.20805 23323 ft 462 kts 283°
2026-04-20 20:41 53.60563 -3.26081 23318 ft 462 kts 283°
2026-04-20 20:42 53.61225 -3.31393 23316 ft 461 kts 282°
2026-04-20 20:42 53.61877 -3.36677 23316 ft 461 kts 282°
2026-04-20 20:42 53.62529 -3.41977 23317 ft 461 kts 282°
2026-04-20 20:42 53.63176 -3.47262 23316 ft 460 kts 282°
2026-04-20 20:43 53.63822 -3.52558 23319 ft 461 kts 282°
2026-04-20 20:43 53.64601 -3.57810 23320 ft 460 kts 288°
2026-04-20 20:43 53.65736 -3.62772 23318 ft 459 kts 295°
2026-04-20 20:43 53.67244 -3.67533 23322 ft 460 kts 302°
2026-04-20 20:44 53.69054 -3.71993 23318 ft 460 kts 305°
2026-04-20 20:44 53.70901 -3.76389 23317 ft 460 kts 305°
2026-04-20 20:44 53.74045 -3.83937 23313 ft 461 kts 305°
2026-04-20 20:44 53.76508 -3.89874 23315 ft 460 kts 305°
2026-04-20 20:45 53.79687 -3.97554 23316 ft 461 kts 305°
2026-04-20 20:45 53.81528 -4.02007 23323 ft 461 kts 304°
2026-04-20 20:45 53.83365 -4.06461 23322 ft 462 kts 304°
2026-04-20 20:45 53.85199 -4.10914 23318 ft 461 kts 304°
2026-04-20 20:46 53.87037 -4.15385 23328 ft 462 kts 304°
2026-04-20 20:46 53.88846 -4.19795 23393 ft 462 kts 304°
2026-04-20 20:46 53.90644 -4.24199 23344 ft 443 kts 304°
2026-04-20 20:46 53.92361 -4.28413 23205 ft 425 kts 304°
2026-04-20 20:47 53.94039 -4.32544 22977 ft 426 kts 304°
2026-04-20 20:47 53.95707 -4.36651 22447 ft 418 kts 304°
2026-04-20 20:47 53.97344 -4.40683 21783 ft 411 kts 304°
2026-04-20 20:47 53.98949 -4.44644 21128 ft 405 kts 304°
2026-04-20 20:48 54.00532 -4.48556 20478 ft 399 kts 304°
2026-04-20 20:48 54.02162 -4.52341 19839 ft 394 kts 309°
2026-04-20 20:48 54.03292 -4.54496 19479 ft 390 kts 313°
2026-04-20 20:48 54.05127 -4.57862 18947 ft 384 kts 312°
2026-04-20 20:49 54.06920 -4.61188 18385 ft 378 kts 312°
2026-04-20 20:49 54.08688 -4.64480 17772 ft 373 kts 312°
2026-04-20 20:49 54.10409 -4.67690 17184 ft 369 kts 312°
2026-04-20 20:49 54.12139 -4.70917 16595 ft 365 kts 312°
2026-04-20 20:50 54.13841 -4.74095 16022 ft 362 kts 312°
2026-04-20 20:50 54.15530 -4.77252 15460 ft 358 kts 312°
2026-04-20 20:50 54.17203 -4.80381 14926 ft 355 kts 312°
2026-04-20 20:50 54.18860 -4.83485 14399 ft 352 kts 312°
2026-04-20 20:51 54.20507 -4.86575 13870 ft 352 kts 312°
2026-04-20 20:51 54.22153 -4.89665 13281 ft 350 kts 312°
2026-04-20 20:51 54.23785 -4.92734 12720 ft 347 kts 312°
2026-04-20 20:51 54.25404 -4.95781 12171 ft 344 kts 312°
2026-04-20 20:52 54.26988 -4.98766 11638 ft 342 kts 312°
2026-04-20 20:52 54.28639 -5.01662 11100 ft 339 kts 322°
2026-04-20 20:52 54.30573 -5.03977 10581 ft 339 kts 326°
2026-04-20 20:52 54.32529 -5.06208 10040 ft 337 kts 327°
2026-04-20 20:53 54.34481 -5.08426 9478 ft 335 kts 327°
2026-04-20 20:53 54.36412 -5.10635 8901 ft 333 kts 326°
2026-04-20 20:53 54.38331 -5.12847 8354 ft 331 kts 326°
2026-04-20 20:53 54.40229 -5.15047 7936 ft 325 kts 326°
2026-04-20 20:54 54.42071 -5.17189 7652 ft 315 kts 326°
2026-04-20 20:54 54.43858 -5.19271 7394 ft 305 kts 326°
2026-04-20 20:54 54.45591 -5.21291 7146 ft 297 kts 327°
2026-04-20 20:54 54.47275 -5.23258 6892 ft 289 kts 327°
2026-04-20 20:55 54.48897 -5.25152 6631 ft 281 kts 327°
2026-04-20 20:55 54.50499 -5.27027 6356 ft 275 kts 327°
2026-04-20 20:55 54.52062 -5.28857 6115 ft 269 kts 327°
2026-04-20 20:55 54.53593 -5.30650 5847 ft 263 kts 327°
2026-04-20 20:56 54.55093 -5.32409 5581 ft 258 kts 327°
2026-04-20 20:56 54.56562 -5.34134 5367 ft 253 kts 327°
2026-04-20 20:56 54.57999 -5.35821 5156 ft 247 kts 327°
2026-04-20 20:56 54.59402 -5.37469 4944 ft 242 kts 327°
2026-04-20 20:57 54.60776 -5.39086 4729 ft 237 kts 327°
2026-04-20 20:57 54.62130 -5.40681 4512 ft 233 kts 327°
2026-04-20 20:57 54.63460 -5.42247 4310 ft 229 kts 327°
2026-04-20 20:57 54.64766 -5.43787 4091 ft 225 kts 327°
2026-04-20 20:58 54.66043 -5.45295 3954 ft 219 kts 327°
2026-04-20 20:58 54.67270 -5.46745 3828 ft 215 kts 328°
2026-04-20 20:58 54.68502 -5.48199 3783 ft 209 kts 327°
2026-04-20 20:58 54.69664 -5.49575 3791 ft 196 kts 327°
2026-04-20 20:59 54.70805 -5.50925 3792 ft 199 kts 327°
2026-04-20 20:59 54.71947 -5.52275 3790 ft 199 kts 327°
2026-04-20 20:59 54.73088 -5.53628 3793 ft 199 kts 328°
2026-04-20 20:59 54.74228 -5.54980 3794 ft 199 kts 328°
2026-04-20 21:00 54.75358 -5.56321 3823 ft 189 kts 328°
2026-04-20 21:00 54.76391 -5.57553 3785 ft 171 kts 328°
2026-04-20 21:00 54.77320 -5.58664 3787 ft 154 kts 328°
2026-04-20 21:00 54.78118 -5.59914 3791 ft 159 kts 298°
2026-04-20 21:01 54.78251 -5.61729 3729 ft 157 kts 249°
2026-04-20 21:01 54.77586 -5.63146 3712 ft 150 kts 210°
2026-04-20 21:01 54.76909 -5.64495 3711 ft 153 kts 232°
2026-04-20 21:01 54.76211 -5.65897 3694 ft 152 kts 225°
2026-04-20 21:02 54.75526 -5.67314 3570 ft 154 kts 226°
2026-04-20 21:02 54.74842 -5.68749 3321 ft 155 kts 226°
2026-04-20 21:02 54.74150 -5.70201 3061 ft 156 kts 226°
2026-04-20 21:02 54.73461 -5.71661 2837 ft 157 kts 228°
2026-04-20 21:03 54.72809 -5.73139 2608 ft 156 kts 229°
2026-04-20 21:03 54.72083 -5.74498 2414 ft 152 kts 218°
2026-04-20 21:03 54.71314 -5.75752 2186 ft 151 kts 218°
2026-04-20 21:03 54.70532 -5.76966 1977 ft 149 kts 216°
2026-04-20 21:04 54.69758 -5.78106 1759 ft 144 kts 216°
2026-04-20 21:04 54.68949 -5.79185 1544 ft 146 kts 210°
2026-04-20 21:04 54.68105 -5.80168 1346 ft 145 kts 207°
2026-04-20 21:04 54.67232 -5.81042 1150 ft 145 kts 205°
2026-04-20 21:05 54.66404 -5.81872 996 ft 134 kts 208°
2026-04-20 21:05 54.65632 -5.82728 837 ft 133 kts 211°
2026-04-20 21:05 54.64870 -5.83631 649 ft 132 kts 213°
2026-04-20 21:05 54.64111 -5.84513 477 ft 131 kts 212°
2026-04-20 21:06 54.63349 -5.85403 272 ft 133 kts 216°
2026-04-20 21:06 54.62599 -5.86303 72 ft 130 kts 214°
2026-04-20 21:06 54.61887 -5.87155 26 ft 111 kts 214°
2026-04-20 21:06 54.61471 -5.87654 19 ft 32 kts 214°
2026-04-20 21:07 54.61328 -5.87788 20 ft 14 kts 170°
2026-04-20 21:07 54.61263 -5.87672 21 ft 0 kts 124°
2026-04-20 21:08 54.61258 -5.87618 23 ft 9 kts 71°
2026-04-20 21:08 54.61333 -5.87507 23 ft 19 kts 35°
2026-04-20 21:08 54.61452 -5.87320 21 ft 26 kts 37°
2026-04-20 21:09 54.61581 -5.87164 21 ft 10 kts 40°
2026-04-20 21:09 54.61576 -5.87079 21 ft 0 kts 116°
2026-04-20 21:09 54.61575 -5.87073 23 ft 2 kts 114°
2026-04-20 21:09 54.61574 -5.87069 22 ft 0 kts 116°